Regional Weather Roundup
Issued by NWS Goodland, KS

Home | Current Version | Previous Version | Graphics & Text | Print | Product List | Glossary On
Versions: 1 2 3 4 5 6 7 8 9 10 11 12 13 14 15 16 17 18 19 20 21 22 23 24 25 26 27 28 29 30 31 32 33 34 35 36 37 38 39 40 41 42 43 44 45 46 47 48 49 50
000
ASUS43 KGLD 281359
RWRGLD

GOODLAND FORECAST AREA HOURLY WEATHER ROUNDUP
NATIONAL WEATHER SERVICE GOODLAND KS
800 AM MDT FRI JUL 28 2017

...OFFICIAL OBSERVATIONS...

CITY           SKY/WX    TMP DP  RH WIND       PRES   REMARKS
GOODLAND KS    SUNNY     70  65  84 S12       30.11S
HILL CITY KS   SUNNY     70  65  84 SE6       30.08F
IMPERIAL NEB   MOSUNNY   70  63  78 S13       30.09R
MCCOOK NEB     CLOUDY    70  63  78 S8        30.08R
AKRON CO       CLOUDY    69  64  84 S13G22    30.13S
BURLINGTON CO  CLOUDY    67  67 100 S16       30.14R FOG
LIMON CO       CLOUDY    65  64  97 S9        30.19R
$$

...UNOFFICIAL OBSERVATIONS...

CITY           SKY/WX    TMP DP  RH WIND       PRES   REMARKS
LENORA KS        N/A     70  32  24 MISG        N/A
NORTON KS      MOSUNNY   70  61  73 SE9       30.07F
SHARON SPRINGS   N/A     69  66  91 SE9G16      N/A
TRENTON NEB      N/A     72  32  23 S7          N/A
KIT CARSON CO    N/A     69  65  89 MISG        N/A
YUMA CO        CLOUDY    64  57  77 SE8       30.11S HAZE
$$




USA.gov is the U.S. government's official web portal to all federal, state and local government web resources and services.